Find Lemur-2 Oba-Ni-Jesu

NORAD ID: 58902 Int'l Des: 2024-022 Owner: SPIRE/NSTAR Country: US Constellation: spire operational
LEOCIRCULARRETROGRADE

リアルタイム位置

3D地球を読み込み中...

Lemur-2 Oba-Ni-Jesuについて

説明を読み込み中...

次回通過

Passes for default location (London). Set your location on the main map for personalized predictions.

高度履歴

Loading altitude history...

軌道要素

1 58902U 24022D 26106.58904478 .00099693 00000-0 66451-3 0 9995
2 58902 97.3967 326.8416 0002367 252.2842 107.8165 15.75081999123547
Epoch: Apr 16, 2026 • Age: 13 hours

現在のステータス

高度 370.9 km
速度 7.69 km/s
衛星直下点 -81.10°S, 125.14°E
打ち上げ日 Jan 31, 2024
運用期間 2.2 years
タイプ other

技術仕様

分類 Payload
質量 25.00 kg
乾燥質量 25.00 kg
総質量 25.00 kg
長さ 0.40 m
直径 0.20 m
スパン 1.00 m
形状 Box+2 pan
製造者 SPIREG
バスタイプ Cubesat 3U
フェーズステータス In Orbit
所有者/国 SPIRE/NSTAR/US

Most Searched